User: anonymous   Login
Location: Newark
(42.8481°N, 0.4872°E)
Time: 20:37:16
(UTC+00:00)
Language:

Tiros 1 despin weight - Orbit

View from above orbital plane
View from above orbital plane
View from above satellite
View from above satellite

Ground track
Ground track

The orbit data is extracted from the following two-line orbital elements,

1   115U 60002D   20301.86358662 +.00000086 +00000-0 +37368-4 0  9990
2   115 048.1679 357.5011 0033859 113.0005 247.4485 14.83636040211478
Epoch (UTC): 27 October 2020 20:43:33
Eccentricity: 0.0033859
inclination: 48.1679°
perigee height: 594 km
apogee height: 641 km
right ascension of ascending node: 357.5011°
argument of perigee: 113.0005°
revolutions per day: 14.83636040
mean anomaly at epoch: 247.4485°
orbit number at epoch: 21147

The dashed part of the orbit path shows where the satellite is in the earth's shadow,  

DLR